Погода в Зубково

Россия / Новосибирская область     53°46′08″N   78°39′14″E
темп.,
°C
ветер,
м/с
пор.,
м/с
влажн.,
%
обл.,
%
осадки,
мм/ч
давл.,
гПа
погр.,
м
18 сентября, сб
сб1801:00+10з4686100 7.1 1000619
04:00+9зюз5118027 0.3 1002650
07:00+7зюз5127526 0.3 1005432
10:00+9зюз69625 0.0 1007850
13:00+12зюз6850100 0.0 10081756
16:00+11зюз7948100 0.0 10091667
19:00+11зюз5849100 0.0 10101125
22:00+10юз255378 0.0 1010208
19 сентября, вс
вс1901:00+8ююз3762100 0.0 1009211
04:00+9ю61358100 0.0 1007457
07:00+9зюз71356100 0.0 10071073
10:00+9з610639 0.0 10081083
13:00+11зюз7851100 0.0 10081773
16:00+10зюз685295 0.0 10091336
19:00+9з5853100 0.0 10101332
22:00+6зюз51062100 0.0 1011401
20 сентября, пн
пн2001:00+6з4105999 0.0 1011353
04:00+4зюз511665 0.0 1012497
07:00+3зюз6127263 0.0 1014593
10:00+5зюз8106647 0.0 1015965
13:00+7зюз81151100 0.0 10151772
16:00+7зюз81151100 0.0 10151717
19:00+7зюз7105474 0.0 10151348
22:00+5з51073100 0.0 10151034
21 сентября, вт
вт2101:00+3з5107493 0.1 1016548
04:00+2з5108438 0.0 1016383
07:00+3з5981100 0.0 1017591
10:00+4з6982100 0.1 1018854
13:00+5зсз686896 0.3 10191087
16:00+7зсз7760100 0.3 10201263
19:00+6зсз676199 0.4 10211165
22:00+4з4871100 0.1 1021539
22 сентября, ср
ср2201:00+3зсз4776100 0.1 1021458
04:00+2з478089 0.0 1021697
07:00+1зюз479170 0.1 1021311
10:00+3з567569 0.0 1021657
13:00+5з5664100 0.0 10211050
16:00+7з5756100 0.0 10201496
19:00+7зсз365687 0.0 1020986
22:00+4ссз258294 0.0 1021149